This demonstration page uses our WeatherBlox Daily Observations layout. Learn more.

Left ArrowRight Arrow

44.8408, -93.29828

Hourly Observations for July 23, 2016

Temp ( °F °C ) Dew Point ( °F °C ) Humidity (%) Winds ( mph kmh ) Pressure ( in mb ) Visibility ( mi km ) Precip ( " mm )
12:53 am 00:53 Mostly Cloudy 80 26.7 66 18.9 62 62 S 3 6 29.96 1015 10 16 0.00 0.00
1:53 am 01:53 Mostly Cloudy 79 26.1 67 19.4 67 67 ENE 6 9 29.94 1014 10 16 0.00 0.00
2:53 am 02:53 Mostly Cloudy 77 25 66 18.9 69 69 E 7 11 29.93 1013 10 16 0.00 0.00
3:53 am 03:53 Mostly Clear 77 25 66 18.9 69 69 E 7 11 29.93 1014 10 16 0.00 0.00
4:53 am 04:53 Mostly Clear 77 25 66 19 69 69 ENE 5 7 29.91 1013 10 16 0.00 0.00
5:53 am 05:53 Mostly Cloudy 76 24.4 67 19.4 74 74 E 7 11 29.93 1014 10 16 0.00 0.00
6:53 am 06:53 Cloudy 77 25 69 20.6 77 77 ESE 9 15 29.91 1013 10 16 0.00 0.00
7:53 am 07:53 Cloudy 79 26.1 72 22.2 79 79 E 10 17 29.88 1012 10 16 0.00 0.00
8:53 am 08:53 Cloudy 81 27.2 74 23.3 79 79 E 9 15 29.85 1011 10 16 0.00 0.00
9:53 am 09:53 Cloudy 81 27.2 73 22.8 77 77 ESE 13 20 29.84 1011 10 16 0.00 0.00
10:34 am 10:34 Cloudy with Thunderstorms 81 27 72 22 74 74 SE 13 20 29.85 1011 10 16 0.00 0.00
10:43 am 10:43 Cloudy with Strong Thunderstorms 76 24.4 71 21.7 85 85 S 18 30 29.88 1012 3 4 0.03 0.76
10:47 am 10:47 Cloudy with Strong Thunderstorms 73 23 70 21 89 89 SSW 16 26 29.85 1011 1 2 0.11 2.79
10:53 am 10:53 Cloudy with Strong Thunderstorms 72 22.2 68 20 87 87 SW 12 19 29.84 1011 1 2 0.28 7.11
11:00 am 11:00 Cloudy with Strong Thunderstorms 72 22.2 69 20.6 91 91 SSW 7 11 29.85 1011 2 2 0.13 3.30
11:05 am 11:05 Cloudy with Thunderstorms 72 22.2 69 20.6 91 91 SSE 12 19 29.88 1012 3 5 0.17 4.32
11:18 am 11:18 Cloudy with Thunderstorms 72 22.2 69 20.6 91 91 E 13 20 29.88 1012 5 8 0.19 4.83
11:34 am 11:34 Cloudy with Thunderstorms 72 22 70 21 94 94 E 15 24 29.85 1011 5 8 0.00 0.00
11:41 am 11:41 Cloudy with Nearby Thunderstorms 73 22.8 70 21.1 90 90 ESE 14 22 29.88 1012 6 10 0.22 5.59
11:48 am 11:48 Cloudy with Rain 73 23 70 21 89 89 ESE 14 22 29.85 1011 4 6 0.24 6.10
11:53 am 11:53 Cloudy with Rain 73 22.8 70 21.1 90 90 ESE 13 20 29.88 1012 3 5 0.26 6.60
12:03 pm 12:03 Cloudy with Heavy Rain 73 23 70 21 89 89 SSE 16 26 29.91 1013 2 2 0.00 0.00
12:08 pm 12:08 Cloudy with Strong Thunderstorms 72 22 70 21 94 94 SSE 17 28 29.94 1014 1 1 0.00 0.00
12:20 pm 12:20 Cloudy with Thunderstorms 72 22 70 21 94 94 SE 16 26 29.85 1011 1 2 0.00 0.00
12:23 pm 12:23 Windy with Storms Likely 72 22.2 70 21.1 94 94 SSE 20 31 29.85 1011 3 4 0.69 17.53
12:30 pm 12:30 Cloudy with Thunderstorms 73 23 70 21 89 89 SSE 16 26 29.88 1012 4 6 0.00 0.00
12:44 pm 12:44 Cloudy with Nearby Thunderstorms 73 23 70 21 89 89 ESE 14 22 29.88 1012 2 3 0.00 0.00
12:46 pm 12:46 Cloudy with Rain 73 22.8 70 21.1 90 90 ESE 14 22 29.85 1011 2 3 0.74 18.80
12:53 pm 12:53 Cloudy with Light Rain 73 22.8 71 21.7 94 94 ESE 13 20 29.87 1012 2 2 0.76 19.30
1:00 pm 13:00 Cloudy with Heavy Rain 73 22.8 70 21.1 90 90 ESE 14 22 29.85 1011 1 2 0.03 0.76
1:05 pm 13:05 Cloudy with Light Rain 73 22.8 71 21.7 94 94 ESE 10 17 29.85 1011 2 3 0.05 1.27
1:14 pm 13:14 Cloudy with Light Rain 73 23 72 22 94 94 ESE 16 26 29.85 1011 9 14 0.00 0.00
1:18 pm 13:18 Cloudy with Light Rain 73 23 72 22 94 94 ESE 14 22 29.85 1011 10 16 0.00 0.00
1:53 pm 13:53 Cloudy 74 23.3 71 21.7 91 91 ESE 17 28 29.84 1011 10 16 0.06 1.52
2:07 pm 14:07 Mostly Cloudy 74 23.3 70 21.1 88 88 ESE 17 28 29.85 1011 10 16 0.00 0.00
2:53 pm 14:53 Mostly Cloudy 75 23.9 68 20 79 79 SE 15 24 29.84 1010 10 16 0.00 0.00
3:23 pm 15:23 Mostly Cloudy with Nearby Thunderstorms 75 23.9 68 20 79 79 SE 10 17 29.83 1010 10 16 0.00 0.00
3:44 pm 15:44 Cloudy with Light Rain 75 24 70 21 83 83 SE 12 19 29.83 1010 10 16 0.00 0.00
3:53 pm 15:53 Cloudy with Light Rain 75 23.9 69 20.6 82 82 ESE 5 7 29.84 1010 10 16 0.00 0.03
4:01 pm 16:01 Cloudy with Rain 75 23.9 69 20.6 82 82 E 7 11 29.83 1010 3 4 0.01 0.25
4:12 pm 16:12 Cloudy with Heavy Rain 73 23 70 21 89 89 NNW 9 15 29.85 1011 1 2 0.00 0.00
4:30 pm 16:30 Cloudy with Light Rain 72 22 70 21 94 94 NE 15 24 29.83 1010 2 3 0.00 0.00
4:35 pm 16:35 Cloudy with Light Rain 72 22.2 69 20.6 91 91 NNE 13 20 29.83 1010 3 5 0.42 10.67
4:43 pm 16:43 Cloudy with Heavy Rain 72 22.2 69 20.6 91 91 NNE 8 13 29.83 1010 2 2 0.43 10.92
4:45 pm 16:45 Cloudy with Heavy Rain 71 21.7 69 20.6 94 94 NNE 6 9 29.83 1010 1 1 0.53 13.46
4:53 pm 16:53 Cloudy with Heavy Rain 71 21.7 69 20.6 94 94 NNW 8 13 29.85 1011 2 3 0.79 20.07
5:50 pm 17:50 Cloudy 73 23 70 21 89 89 ESE 10 17 29.80 1009 10 16 0.02 0.51
5:53 pm 17:53 Mostly Cloudy 74 23.3 70 21.1 88 88 ESE 13 20 29.81 1010 10 16 0.02 0.51
6:53 pm 18:53 Partly Cloudy 75 23.9 70 21.1 84 84 SE 12 19 29.79 1009 10 16 0.00 0.00
7:53 pm 19:53 Mostly Sunny 75 23.9 70 21.1 84 84 SE 8 13 29.76 1008 10 16 0.00 0.00
8:53 pm 20:53 Mostly Clear 75 23.9 71 21.7 88 88 ESE 7 11 29.76 1008 10 16 0.00 0.00
9:53 pm 21:53 Mostly Clear 75 23.9 71 21.7 88 88 ESE 7 11 29.76 1008 10 16 0.00 0.00
10:09 pm 22:09 Mostly Cloudy 75 23.9 71 21.7 88 88 ESE 7 11 29.74 1007 10 16 0.00 0.00
10:53 pm 22:53 Cloudy 75 23.9 71 21.7 88 88 SSE 3 6 29.78 1008 10 16 0.00 0.00
11:53 pm 23:53 Cloudy 75 23.9 70 21.1 84 84 SE 8 13 29.76 1008 10 16 0.00 0.00

Powered by AerisWeather